Regional Weather Roundup
Issued by NWS

Home | Current Version | Previous Version | Graphics & Text | Print | Product List | Glossary Off
Versions: 1 2 3 4 5 6 7 8 9 10 11 12 13 14 15 16 17 18 19 20 21 22 23 24 25 26 27 28 29 30 31 32 33 34 35 36 37 38 39 40 41 42 43 44 45 46 47 48 49 50

000
ASUS43 KTOP 242008
RWRKS

WEATHER ROUNDUP FOR KANSAS
NATIONAL WEATHER SERVICE GOODLAND KS
300 PM CDT MON JUL 24 2017

NOTE:  "FAIR" INDICATES FEW OR NO CLOUDS BELOW 12,000 FEET WITH NO
SIGNIFICANT WEATHER AND/OR OBSTRUCTIONS TO VISIBILITY.

KSZ001>006-013>018-027>032-041>047-242100-
NORTHWEST KANSAS

CITY           SKY/WX    TMP DP  RH WIND       PRES   REMARKS
GOODLAND       SUNNY     92  61  35 S20G26    30.01F
HAYS             N/A     98  57  25 S14       29.95  HX  97
HILL CITY      SUNNY     99  57  24 SE14G22   29.96F HX  98
RUSSELL        SUNNY     97  61  30 S9        29.95F HX  97
$$

KSZ061>065-074>080-084>089-242100-
SOUTHWEST KANSAS

CITY           SKY/WX    TMP DP  RH WIND       PRES   REMARKS
DODGE CITY     SUNNY     96  49  20 S17G24    30.01F
ELKHART          N/A     93  57  29 SE12        N/A
GARDEN CITY    SUNNY     93  61  34 S14G22    30.01F
GREAT BEND     SUNNY     97  59  28 S14       29.97F HX  96
LIBERAL        MOSUNNY   94  65  38 SE10G16   30.01F HX  96
PRATT          SUNNY     93  56  29 S10       29.98F
$$

KSZ066>073-081>083-090>101-242100-
SOUTHEAST KANSAS

CITY           SKY/WX    TMP DP  RH WIND       PRES   REMARKS
CHANUTE        MOSUNNY   91  71  51 VRB6      29.98F HX  97
COFFEYVILLE    MOSUNNY   95  69  42 MISG      29.96F HX 100
HUTCHINSON     SUNNY     95  67  39 SE9G17    29.97F HX  99
MEDICINE LODGE   N/A     97  55  24 SE7G20    29.96S HX  95
NEWTON         SUNNY     90  71  53 SE13      30.00F HX  96
PARSONS        MOSUNNY   93  70  46 CALM      29.98F HX  99
WICHITA INTL   MOSUNNY   95  68  41 SE9       29.97F HX  99
WICHITA JABRA  SUNNY     94  71  47 VRB7      29.98F HX 101
WICHITA MCCONL SUNNY     94  67  41 SE7       29.98F HX  98
WINFIELD       PTSUNNY   98  66  34 S12       29.97F HX 101
$$

KSZ007>012-019>026-033>040-048>060-102>105-242100-
NORTHEAST KANSAS

CITY           SKY/WX    TMP DP  RH WIND       PRES   REMARKS
CONCORDIA      SUNNY     92  71  50 SE9       29.96F HX  98
EMPORIA        MOSUNNY   92  71  50 E7        29.98S HX  98
LAWRENCE       SUNNY     87  69  54 SE6       29.98F
MANHATTAN      SUNNY     93  72  50 VRB5      29.96F HX 101
MARYSVILLE     SUNNY     91  68  46 S9        29.97F HX  95
OLATHE IND     SUNNY     87  69  54 VRB5      29.99F
OLATHE EXE     SUNNY     86  69  56 E5        29.99F
SALINA         SUNNY     98  65  33 E12       29.95F HX 101
TOPEKA BILLARD SUNNY     88  72  58 E7        29.97F
TOPEKA FORBES  SUNNY     89  72  56 SE7       29.98F HX  96
$$




USA.gov is the U.S. government's official web portal to all federal, state and local government web resources and services.